DW4238 Weather Reports


Display with metric or nautical units.
time (UTC)temp
F
wind
direction
speed
MPH
gust
MPH
rain 1hr
in
rain 24hr
in
rain mn
in
humidity
%
barometer
mb
20210614185324 93 321 4.0 9.0 0.00 0.00 0.00 55 1013.5
20210614184318 94 38 2.0 8.0 0.00 0.00 0.00 55 1013.6
20210614183323 93 5 5.0 17.0 0.00 0.00 0.00 55 1013.7
20210614182315 93 217 2.0 6.0 0.00 0.00 0.00 56 1013.8
20210614181323 93 343 6.0 9.0 0.00 0.00 0.00 55 1014.0
20210614180317 93 16 4.0 8.0 0.00 0.00 0.00 57 1014.1
20210614175325 92 336 3.0 9.0 0.00 0.00 0.00 57 1014.2
20210614174318 92 327 6.0 10.0 0.00 0.00 0.00 60 1014.3
20210614173326 91 344 3.0 8.0 0.00 0.00 0.00 63 1014.4
20210614172321 91 281 7.0 10.0 0.00 0.00 0.00 62 1014.4
20210614171308 91 266 4.0 11.0 0.00 0.00 0.00 61 1014.5
20210614170323 91 347 3.0 10.0 0.00 0.00 0.00 61 1014.5
20210614165311 90 274 4.0 10.0 0.00 0.00 0.00 64 1014.4
20210614164326 90 285 5.0 8.0 0.00 0.00 0.00 64 1014.4
20210614163312 90 313 5.0 8.0 0.00 0.00 0.00 65 1014.3
20210614162310 89 286 4.0 8.0 0.00 0.00 0.00 66 1014.3
20210614161314 89 274 5.0 8.0 0.00 0.00 0.00 69 1014.2
20210614160308 88 276 4.0 8.0 0.00 0.00 0.00 72 1014.2
20210614155313 87 341 5.0 9.0 0.00 0.00 0.00 72 1014.1
20210614154327 87 286 6.0 10.0 0.00 0.00 0.00 73 1014.1
20210614153312 86 306 4.0 9.0 0.00 0.00 0.00 73 1014.0
20210614152326 86 278 4.0 8.0 0.00 0.00 0.00 73 1014.0
20210614151319 86 298 5.0 8.0 0.00 0.00 0.00 73 1014.1
20210614150327 86 309 4.0 9.0 0.00 0.00 0.00 74 1014.2
20210614145317 85 294 3.0 6.0 0.00 0.00 0.00 75 1014.2
20210614144322 85 322 4.0 6.0 0.00 0.00 0.00 76 1014.2
20210614143314 84 275 2.0 8.0 0.00 0.00 0.00 78 1014.1
20210614142317 84 269 2.0 5.0 0.00 0.00 0.00 78 1014.2
20210614141309 83 292 2.0 5.0 0.00 0.00 0.00 79 1014.1
20210614140317 83 262 3.0 4.0 0.00 0.00 0.00 80 1014.1
20210614135312 82 273 2.0 6.0 0.00 0.00 0.00 82 1014.1
20210614134315 82 287 4.0 7.0 0.00 0.00 0.00 81 1014.0
20210614133310 81 238 3.0 5.0 0.00 0.00 0.00 82 1013.9
20210614132321 81 235 3.0 8.0 0.00 0.00 0.00 86 1013.8
20210614131328 80 281 0.0 0.0 0.00 0.00 0.00 89 1013.7
20210614130321 80 296 0.0 0.0 0.00 0.00 0.00 89 1013.6
20210614125310 80 297 0.0 0.0 0.00 0.00 0.00 90 1013.7
20210614124323 80 327 0.0 0.0 0.00 0.00 0.00 95 1013.7
20210614123323 79 327 0.0 0.0 0.00 0.00 0.00 95 1013.8
20210614122315 79 327 0.0 0.0 0.00 0.00 0.00 96 1013.6
20210614121323 78 327 0.0 0.0 0.00 0.00 0.00 95 1013.2
20210614120316 79 327 0.0 0.0 0.00 0.00 0.00 93 1013.0
20210614115322 79 327 0.0 0.0 0.00 0.00 0.00 94 1012.9
20210614114317 78 327 0.0 0.0 0.00 0.00 0.00 95 1013.0
20210614113326 78 320 0.0 0.0 0.00 0.00 0.00 95 1012.8
20210614112310 78 297 0.0 0.0 0.00 0.00 0.00 95 1012.5
20210614111323 78 297 0.0 2.0 0.00 0.00 0.00 95 1012.4
20210614110311 78 290 2.0 3.0 0.00 0.00 0.00 96 1012.3
20210614105325 78 290 2.0 4.0 0.00 0.00 0.00 97 1012.2
20210614104313 78 262 1.0 3.0 0.00 0.00 0.00 97 1012.1
20210614103324 78 261 3.0 7.0 0.00 0.00 0.00 97 1012.0
20210614102328 78 273 4.0 8.0 0.00 0.00 0.00 96 1011.8
20210614101322 78 268 4.0 8.0 0.00 0.00 0.00 95 1011.8
20210614100310 79 281 6.0 10.0 0.00 0.00 0.00 93 1011.7
20210614095324 79 270 4.0 8.0 0.00 0.00 0.00 92 1012.0
20210614094312 79 288 5.0 9.0 0.00 0.00 0.00 92 1012.1
20210614093327 79 256 2.0 4.0 0.00 0.00 0.00 91 1012.0
20210614092314 79 256 3.0 6.0 0.00 0.00 0.00 91 1012.3
20210614091308 79 254 0.0 3.0 0.00 0.00 0.00 92 1012.4
20210614090316 79 254 0.0 3.0 0.00 0.00 0.00 93 1012.4
20210614085311 79 254 1.0 5.0 0.00 0.00 0.00 94 1012.1
20210614084318 79 228 4.0 7.0 0.00 0.00 0.00 93 1011.9
20210614083313 79 202 0.0 3.0 0.00 0.00 0.00 90 1012.4
20210614082321 80 202 1.0 2.0 0.00 0.00 0.00 90 1012.8
20210614081316 79 202 1.0 3.0 0.00 0.00 0.00 90 1012.9
20210614080323 80 202 2.0 4.0 0.00 0.00 0.00 90 1012.8
20210614075318 80 191 2.0 4.0 0.00 0.00 0.00 89 1012.9
20210614074309 80 155 3.0 5.0 0.00 0.00 0.00 89 1012.9
20210614073323 80 211 3.0 5.0 0.00 0.00 0.00 88 1012.8
20210614072310 81 85 0.0 0.0 0.00 0.00 0.00 87 1012.9
20210614071325 81 84 0.0 0.0 0.00 0.00 0.00 88 1013.0
20210614070311 81 84 0.0 0.0 0.00 0.00 0.00 87 1013.2
20210614065327 81 84 0.0 0.0 0.00 0.00 0.00 86 1013.2
20210614064313 81 84 0.0 0.0 0.00 0.00 0.00 86 1013.3
20210614063328 82 84 0.0 0.0 0.00 0.00 0.00 83 1013.4
20210614062323 82 23 0.0 0.0 0.00 0.00 0.00 81 1013.4
20210614061309 83 22 0.0 0.0 0.00 0.00 0.00 77 1013.4
20210614060315 84 355 0.0 0.0 0.00 0.00 0.00 76 1013.5
20210614055322 85 355 0.0 0.0 0.00 0.00 0.00 74 1013.5
20210614054316 84 355 0.0 0.0 0.00 0.00 0.00 74 1013.5
20210614053324 84 355 0.0 0.0 0.00 0.00 0.00 76 1013.3
20210614052317 84 355 0.0 0.0 0.00 0.00 0.00 75 1013.2
20210614051316 84 355 0.0 0.0 0.00 0.00 0.00 75 1013.1
20210614050311 85 355 0.0 0.0 0.00 0.00 0.00 74 1012.9
20210614045319 85 355 0.0 0.0 0.00 0.00 0.00 74 1012.8
20210614044313 85 355 0.0 0.0 0.00 0.00 0.00 74 1012.6
20210614043321 84 355 0.0 0.0 0.00 0.00 0.00 76 1012.6
20210614042316 84 355 0.0 0.0 0.00 0.00 0.00 76 1012.4
20210614041330 84 355 0.0 0.0 0.00 0.00 0.00 77 1012.3
20210614040318 85 355 0.0 0.0 0.00 0.00 0.00 76 1012.2
20210614035333 84 355 0.0 0.0 0.00 0.00 0.00 77 1012.2
20210614034320 85 355 0.0 0.0 0.00 0.00 0.00 74 1012.1
20210614033310 85 355 0.0 0.0 0.00 0.00 0.00 72 1012.1
20210614032326 86 355 0.0 0.0 0.00 0.00 0.00 72 1011.8
20210614031310 86 355 0.0 0.0 0.00 0.00 0.00 72 1011.7
20210614030324 86 355 0.0 0.0 0.00 0.00 0.00 71 1011.6
20210614025320 86 355 0.0 0.0 0.00 0.00 0.00 71 1011.7
20210614024327 86 355 0.0 0.0 0.00 0.00 0.00 72 1011.6
20210614023321 86 355 0.0 0.0 0.00 0.00 0.00 73 1011.7
20210614022328 87 355 0.0 0.0 0.00 0.00 0.00 71 1011.4
20210614021322 87 355 0.0 0.0 0.00 0.00 0.00 68 1011.5
20210614020309 87 355 0.0 1.0 0.00 0.00 0.00 69 1011.3
20210614015323 88 355 0.0 0.0 0.00 0.00 0.00 66 1011.5
20210614014311 89 355 0.0 0.0 0.00 0.00 0.00 64 1011.4
20210614013325 90 355 0.0 0.0 0.00 0.00 0.00 64 1011.6
20210614012313 90 355 0.0 0.0 0.00 0.00 0.00 62 1011.4
20210614011327 91 355 0.0 0.0 0.00 0.00 0.00 61 1011.6
20210614010314 91 355 0.0 0.0 0.00 0.00 0.00 61 1011.4
20210614005328 92 355 0.0 2.0 0.00 0.00 0.00 58 1011.6
20210614004315 92 355 0.0 2.0 0.00 0.00 0.00 58 1011.6
20210614003327 93 355 0.0 0.0 0.00 0.00 0.00 58 1011.5
20210614002313 93 355 2.0 3.0 0.00 0.00 0.00 56 1011.4
20210614001308 93 355 1.0 3.0 0.00 0.00 0.00 56 1011.3
20210614000316 94 355 2.0 4.0 0.00 0.00 0.00 55 1011.5
20210613235311 94 319 2.0 4.0 0.00 0.00 0.00 54 1011.4
20210613234319 94 319 2.0 5.0 0.00 0.00 0.00 54 1011.4
20210613233318 94 344 2.0 6.0 0.00 0.00 0.00 53 1011.4
20210613232325 94 336 3.0 6.0 0.00 0.00 0.00 51 1011.4
20210613231320 94 355 3.0 8.0 0.00 0.00 0.00 55 1011.6
20210613230308 94 297 4.0 5.0 0.00 0.00 0.00 54 1011.5
20210613225321 94 317 4.0 8.0 0.00 0.00 0.00 53 1011.6
20210613224333 95 325 3.0 5.0 0.00 0.00 0.00 53 1011.6
20210613223321 94 348 2.0 8.0 0.00 0.00 0.00 52 1011.5
20210613222333 94 348 3.0 5.0 0.00 0.00 0.00 52 1011.8
20210613221321 94 292 1.0 4.0 0.00 0.00 0.00 53 1011.8
20210613220333 94 60 2.0 5.0 0.00 0.00 0.00 54 1011.7
20210613215320 93 349 3.0 4.0 0.00 0.00 0.00 57 1011.8
20210613214332 92 21 2.0 4.0 0.00 0.00 0.00 59 1012.0
20210613213320 93 9 4.0 6.0 0.00 0.00 0.00 56 1012.1
20210613212313 94 360 2.0 9.0 0.00 0.00 0.00 57 1012.4
20210613211320 93 231 4.0 9.0 0.00 0.00 0.00 56 1012.4
20210613210313 94 232 8.0 10.0 0.00 0.00 0.00 55 1012.5
20210613205321 93 334 1.0 12.0 0.00 0.00 0.00 56 1012.6
20210613204314 93 245 3.0 10.0 0.00 0.00 0.00 56 1012.6
20210613203323 93 254 4.0 8.0 0.00 0.00 0.00 54 1012.8
20210613202316 93 252 3.0 6.0 0.00 0.00 0.00 55 1013.0
20210613201324 92 287 7.0 9.0 0.00 0.00 0.00 57 1012.9
20210613200317 92 355 5.0 9.0 0.00 0.00 0.00 58 1013.1
20210613195322 93 321 3.0 6.0 0.00 0.00 0.00 57 1013.1
20210613194316 93 261 2.0 4.0 0.00 0.00 0.00 57 1013.3
20210613193320 92 130 4.0 11.0 0.00 0.00 0.00 61 1013.4
20210613192319 92 355 4.0 10.0 0.00 0.00 0.00 61 1013.7
20210613191334 92 300 4.0 9.0 0.00 0.00 0.00 60 1013.7
20210613190320 91 343 4.0 10.0 0.00 0.00 0.00 61 1014.0